Regional Weather Roundup
Issued by NWS

Home | Current Version | Previous Version | Text Only | Print | Product List | Glossary On
Versions: 1 2 3 4 5 6 7 8 9 10 11 12 13 14 15 16 17 18 19 20 21 22 23 24 25 26 27 28 29 30 31 32 33 34 35 36 37 38 39 40 41 42 43 44 45 46 47 48 49 50
000
ASUS43 KDTX 221910
RWRMI
MICHIGAN HOURLY REGIONAL WEATHER ROUNDUP
NATIONAL WEATHER SERVICE DETROIT/PONTIAC MI
300 PM EDT MON MAY 22 2017

NOTE: "FAIR" INDICATES FEW OR NO CLOUDS BELOW 12,000 FEET WITH NO
SIGNIFICANT WEATHER AND/OR OBSTRUCTION TO VISIBILITY.

MIZ047>049-052>055-059>063-066>070-074>076-081>083-222000-
SOUTHEAST LOWER MICHIGAN

CITY           SKY/WX    TMP DP  RH WIND       PRES   REMARKS
ADRIAN         PTSUNNY   66  46  48 W9G20     30.01S
ALMA           MOSUNNY   64  42  44 W21G32    29.94S
ANN ARBOR      MOSUNNY   66  47  50 SW12G23   29.97F
BAD AXE        MOSUNNY   60  44  56 W13G21    29.92F
CARO           MOSUNNY   64  45  49 W14G24    29.92S
DETROIT CITY   MOSUNNY   66  44  45 W14G24    29.96F
DETROIT        MOSUNNY   68  45  43 SW18      29.98S
FLINT          MOSUNNY   66  43  43 W22G30    29.94F
GROSSE ILE     MOSUNNY   67  45  44 W13G18    29.98S
HILLSDALE      MOSUNNY   64  45  48 SW7G20    29.99F
HOWELL         MOSUNNY   66  40  39 W17G24    29.96S

CITY           SKY/WX    TMP DP  RH WIND       PRES   REMARKS
JACKSON        MOSUNNY   66  46  48 W20G26    29.97F
LAMBERTVILLE   SUNNY     66  46  46 W14G21    29.99F
LANSING        SUNNY     66  43  43 W20G28    29.96F
LAPEER         FAIR      65  41  40 W14G23    29.94S
MASON          SUNNY     66  45  45 W16G30    29.96F
MONROE         MOSUNNY   68  45  43 W13       29.99S
MT. CLEMENS    MOSUNNY   66  46  47 W14G23    29.95F
PONTIAC        MOSUNNY   66  42  41 W21G30    29.94F
PORT HOPE        N/A     59  42  53 W14G21    29.89F
PORT HURON     MOSUNNY   64  41  42 W8G17     29.95F
TRI CITIES     MOSUNNY   65  45  48 W22G30    29.91F
MIDLAND        FAIR      66  38  35 W15G28    29.89F
TROY           MOSUNNY   67  37  33 W10G18    29.97F
SAGINAW HB     MOSUNNY   64  41  42 SW18G24   29.91F
$$
MIZ043>046-050>051-056>058-064>065-071>073-077>080-222000-
SOUTHWEST LOWER MICHIGAN

CITY           SKY/WX    TMP DP  RH WIND       PRES   REMARKS
BATTLE CREEK   SUNNY     67  45  45 W18G24    29.98F
BENTON HARBOR  SUNNY     67  44  43 SW16G22   29.99F
BIG RAPIDS     MOSUNNY   62  38  41 W21G33    29.91S
COLDWATER      MOSUNNY   66  44  44 W8        30.00S
FREMONT        FAIR      61  40  45 SW20      29.95S
HOLLAND        SUNNY     64  45  49 SW17G29   29.98F
GRAND RAPIDS   MOSUNNY   64  45  49 SW20G29   29.96F
IONIA          FAIR      65  44  45 W20G25    29.95S
KALAMAZOO      SUNNY     67  42  40 W13       29.99F
LUDINGTON      PTSUNNY   58  44  61 S18G25    29.92S
MARSHALL       MOSUNNY   67  46  46 W13       29.97F
MOUNT PLEASANT MOSUNNY   65  41  41 W15G24    29.90F
MUSKEGON       SUNNY     62  43  49 SW21      29.96F
SOUTH HAVEN    SUNNY     65  44  46 SW14G24   29.98F
$$
MIZ016>042-222000-
NORTHERN LOWER MICHIGAN

CITY           SKY/WX    TMP DP  RH WIND       PRES   REMARKS
ALPENA         CLOUDY    57  44  62 W9G20     29.85S
BEAVER ISLAND  PTSUNNY   55  44  67 SW17G25   29.83S
BELLAIRE       CLOUDY    55  41  58 SW7       29.88S
CADILLAC       MOSUNNY   59  40  48 W17G29    29.88S
CHARLEVOIX     MOSUNNY   56  44  65 SW17G26   29.89R
FRANKFORT      SUNNY     56  42  61 S12G25    29.90S
GAYLORD        CLOUDY    54  40  59 SW16      29.86R
GRAYLING       PTSUNNY   57  41  55 W17G26    29.88S
HARBOR SPRINGS CLOUDY    51  43  74 W13G20    29.85F
HOUGHTON LAKE  PTSUNNY   59  42  53 W12G21    29.89F
MANISTEE       SUNNY     60  44  55 SW13G22   29.90S
OSCODA         CLOUDY    60  41  50 W18G25    29.88S
PELLSTON       CLOUDY    54  43  66 SW17G24   29.85S
ROGERS CITY    CLOUDY    55  44  68 W13G20    29.85S
TRAVERSE CITY  PTSUNNY   62  41  46 W18G30    29.86S
$$
MIZ007>008-015-222000-
EASTERN UPPER MICHIGAN

CITY           SKY/WX    TMP DP  RH WIND       PRES   REMARKS
KINROSS        LGT RAIN  48  46  93 SW10G16   29.81S
MACKINAC ISLAN CLOUDY    48  48  99 SW14G26   29.83R
NEWBERRY       CLOUDY    51  50  97 SW10      29.79S
S. S. MARIE    LGT RAIN  51  49  92 SW10      29.80R FOG
MUNISING         N/A     55  45  68 SW12G17   29.77S
$$
MIZ004>006-011>014-085-222000-
CENTRAL UPPER MICHIGAN

CITY           SKY/WX    TMP DP  RH WIND       PRES   REMARKS
MANISTIQUE     CLOUDY    54  46  73 W9        29.80S
ESCANABA       CLOUDY    59  42  53 SW12      29.80S
MENOMINEE      CLOUDY    62  41  46 W9G22     29.82
SAWYER-GWINN   CLOUDY    54  41  62 W9        29.78S
$$
MIZ001>003-009>011-084-222000-
WESTERN UPPER MICHIGAN

CITY           SKY/WX    TMP DP  RH WIND       PRES   REMARKS
IRON MOUNTAIN  CLOUDY    57  37  47 W14G20    29.77F
HOUGHTON       CLOUDY    51  41  68 W15       29.75R
COPPER HARBOR    N/A     50  43  77 N10       29.74S
IRONWOOD       CLOUDY    52  43  71 SW10      29.78R
$$

ABBREVIATIONS USED IN REMARKS
   TC - TEMPERATURE IN CELSIUS
  WCI - WIND CHILL INDEX
   HX - HEAT INDEX
  VSB - VISIBILITY





USA.gov is the U.S. government's official web portal to all federal, state and local government web resources and services.